owner,sensor,date,latitude,longitude,vertical_datum,direction_of_sea_water_velocity,sea_water_speed,upward_sea_water_velocity,qcFlag 
TABS,ioos:station:wmo:42046:1,2009-12-01T00:00:00Z,27.8903,-94.0367,2.0,174.6691793,4.951413939,-99999.0,'11133222,11111222,99999999' 
TABS,ioos:station:wmo:42046:1,2009-12-01T00:30:00Z,27.8903,-94.0367,2.0,243.6084761,2.947151167,-99999.0,'11133222,11111222,99999999' 
TABS,ioos:station:wmo:42046:1,2009-12-01T01:00:00Z,27.8903,-94.0367,2.0,172.1541279,7.69200234,-99999.0,'11133222,11111222,99999999' 
TABS,ioos:station:wmo:42046:1,2009-12-01T01:30:00Z,27.8903,-94.0367,2.0,171.0848834,1.03247276,-99999.0,'11133222,11111222,99999999' 
TABS,ioos:station:wmo:42046:1,2009-12-01T02:00:00Z,27.8903,-94.0367,2.0,159.3862088,1.164560003,-99999.0,'11133222,11111222,99999999' 
TABS,ioos:station:wmo:42046:1,2009-12-01T02:30:00Z,27.8903,-94.0367,2.0,148.7250572,4.738575735,-99999.0,'11133222,11111222,99999999' 
TABS,ioos:station:wmo:42046:1,2009-12-01T03:00:00Z,27.8903,-94.0367,2.0,88.25549424,1.970913494,-99999.0,'11133222,11111222,99999999' 
TABS,ioos:station:wmo:42046:1,2009-12-01T03:30:00Z,27.8903,-94.0367,2.0,337.7110525,4.798541445,-99999.0,'11133222,11111222,99999999' 
TABS,ioos:station:wmo:42046:1,2009-12-01T04:00:00Z,27.8903,-94.0367,2.0,37.14940579,5.33206339,-99999.0,'11133222,11111222,99999999' 
TABS,ioos:station:wmo:42046:1,2009-12-01T04:30:00Z,27.8903,-94.0367,2.0,353.3500257,4.490211576,-99999.0,'11133222,11111222,99999999' 
TABS,ioos:station:wmo:42046:1,2009-12-01T05:00:00Z,27.8903,-94.0367,2.0,328.6812091,6.637122871,-99999.0,'11133222,11111222,99999999' 
TABS,ioos:station:wmo:42046:1,2009-12-01T05:30:00Z,27.8903,-94.0367,2.0,46.45711005,5.283795984,-99999.0,'11133222,11111222,99999999' 
TABS,ioos:station:wmo:42046:1,2009-12-01T06:00:00Z,27.8903,-94.0367,2.0,27.12484614,7.325708157,-99999.0,'11133222,11111222,99999999' 
TABS,ioos:station:wmo:42046:1,2009-12-01T06:30:00Z,27.8903,-94.0367,2.0,23.40768822,8.281551787,-99999.0,'11133222,11111222,99999999' 
TABS,ioos:station:wmo:42046:1,2009-12-01T07:00:00Z,27.8903,-94.0367,2.0,32.48851379,7.670417199,-99999.0,'11133222,11111222,99999999' 
TABS,ioos:station:wmo:42046:1,2009-12-01T07:30:00Z,27.8903,-94.0367,2.0,36.59456417,6.240072115,-99999.0,'11133222,11111222,99999999' 
TABS,ioos:station:wmo:42046:1,2009-12-01T08:00:00Z,27.8903,-94.0367,2.0,27.81166653,10.0736339,-99999.0,'11111222,11111222,99999999' 
TABS,ioos:station:wmo:42046:1,2009-12-01T08:30:00Z,27.8903,-94.0367,2.0,43.92063803,10.50947192,-99999.0,'11111222,11111222,99999999' 
TABS,ioos:station:wmo:42046:1,2009-12-01T09:00:00Z,27.8903,-94.0367,2.0,46.6304709,3.72796191,-99999.0,'11133222,11111222,99999999' 
TABS,ioos:station:wmo:42046:1,2009-12-01T09:30:00Z,27.8903,-94.0367,2.0,53.28588288,6.624024456,-99999.0,'11133222,11111222,99999999' 
TABS,ioos:station:wmo:42046:1,2009-12-01T10:00:00Z,27.8903,-94.0367,2.0,16.97463708,5.58323383,-99999.0,'11133222,11111222,99999999' 
TABS,ioos:station:wmo:42046:1,2009-12-01T10:30:00Z,27.8903,-94.0367,2.0,76.4045164,5.360195892,-99999.0,'11133222,11111222,99999999' 
TABS,ioos:station:wmo:42046:1,2009-12-01T11:00:00Z,27.8903,-94.0367,2.0,35.1724042,5.468400132,-99999.0,'11133222,11111222,99999999' 
TABS,ioos:station:wmo:42046:1,2009-12-01T11:30:00Z,27.8903,-94.0367,2.0,50.96457838,4.287061931,-99999.0,'11133222,11111222,99999999' 
TABS,ioos:station:wmo:42046:1,2009-12-01T12:00:00Z,27.8903,-94.0367,2.0,44.28394696,2.26291847,-99999.0,'11133222,11111222,99999999' 
TABS,ioos:station:wmo:42046:1,2009-12-01T12:30:00Z,27.8903,-94.0367,2.0,51.19732131,5.633205127,-99999.0,'11133222,11111222,99999999' 
TABS,ioos:station:wmo:42046:1,2009-12-01T13:00:00Z,27.8903,-94.0367,2.0,20.49360085,6.426733229,-99999.0,'11133222,11111222,99999999' 
TABS,ioos:station:wmo:42046:1,2009-12-01T13:30:00Z,27.8903,-94.0367,2.0,11.83097164,5.609153234,-99999.0,'11133222,11111222,99999999' 
TABS,ioos:station:wmo:42046:1,2009-12-01T14:00:00Z,27.8903,-94.0367,2.0,17.48379989,6.856763085,-99999.0,'11133222,11111222,99999999' 
TABS,ioos:station:wmo:42046:1,2009-12-01T14:30:00Z,27.8903,-94.0367,2.0,25.06516536,13.66705894,-99999.0,'11111222,11111222,99999999' 
TABS,ioos:station:wmo:42046:1,2009-12-01T15:00:00Z,27.8903,-94.0367,2.0,358.0290542,5.233096598,-99999.0,'11133222,11111222,99999999' 
TABS,ioos:station:wmo:42046:1,2009-12-01T15:30:00Z,27.8903,-94.0367,2.0,79.79605014,4.064283455,-99999.0,'11133222,11111222,99999999' 
TABS,ioos:station:wmo:42046:1,2009-12-01T16:00:00Z,27.8903,-94.0367,2.0,297.0044485,5.836308765,-99999.0,'11133222,11111222,99999999' 
TABS,ioos:station:wmo:42046:1,2009-12-01T16:30:00Z,27.8903,-94.0367,2.0,3.068677496,10.27473114,-99999.0,'11111222,11111222,99999999' 
TABS,ioos:station:wmo:42046:1,2009-12-01T17:00:00Z,27.8903,-94.0367,2.0,352.6232586,10.43638347,-99999.0,'11111222,11111222,99999999' 
TABS,ioos:station:wmo:42046:1,2009-12-01T17:30:00Z,27.8903,-94.0367,2.0,321.2875978,8.458374548,-99999.0,'11133222,11111222,99999999' 
TABS,ioos:station:wmo:42046:1,2009-12-01T18:00:00Z,27.8903,-94.0367,2.0,319.3811087,6.942859641,-99999.0,'11133222,11111222,99999999' 
TABS,ioos:station:wmo:42046:1,2009-12-01T18:30:00Z,27.8903,-94.0367,2.0,326.4501186,10.22315509,-99999.0,'11111222,11111222,99999999' 
TABS,ioos:station:wmo:42046:1,2009-12-01T19:00:00Z,27.8903,-94.0367,2.0,299.8571927,12.69497932,-99999.0,'11111222,11111222,99999999' 
TABS,ioos:station:wmo:42046:1,2009-12-01T19:30:00Z,27.8903,-94.0367,2.0,312.5955209,11.62800499,-99999.0,'11111222,11111222,99999999' 
TABS,ioos:station:wmo:42046:1,2009-12-01T20:00:00Z,27.8903,-94.0367,2.0,336.6817958,11.92396327,-99999.0,'11111222,11111222,99999999' 
TABS,ioos:station:wmo:42046:1,2009-12-01T20:30:00Z,27.8903,-94.0367,2.0,329.941631,13.13671572,-99999.0,'11111222,11111222,99999999' 
TABS,ioos:station:wmo:42046:1,2009-12-01T21:00:00Z,27.8903,-94.0367,2.0,317.6305879,17.25744477,-99999.0,'11111222,11111222,99999999' 
TABS,ioos:station:wmo:42046:1,2009-12-01T21:30:00Z,27.8903,-94.0367,2.0,313.7234205,13.9617549,-99999.0,'11111222,11111222,99999999' 
TABS,ioos:station:wmo:42046:1,2009-12-01T22:00:00Z,27.8903,-94.0367,2.0,316.1707431,12.80837617,-99999.0,'11111222,11111222,99999999' 
TABS,ioos:station:wmo:42046:1,2009-12-01T22:30:00Z,27.8903,-94.0367,2.0,328.5641066,16.431838,-99999.0,'11111222,11111222,99999999' 
TABS,ioos:station:wmo:42046:1,2009-12-01T23:00:00Z,27.8903,-94.0367,2.0,303.8885079,17.64789223,-99999.0,'11111222,11111222,99999999' 
TABS,ioos:station:wmo:42046:1,2009-12-01T23:30:00Z,27.8903,-94.0367,2.0,346.7731743,12.19348187,-99999.0,'11111222,11111222,99999999' 
TABS,ioos:station:wmo:42046:1,2009-12-02T00:00:00Z,27.8903,-94.0367,2.0,353.5968398,12.01495734,-99999.0,'11111222,11111222,99999999' 
TABS,ioos:station:wmo:42046:1,2009-12-02T00:30:00Z,27.8903,-94.0367,2.0,350.4195922,9.553245522,-99999.0,'11133222,11111222,99999999' 
TABS,ioos:station:wmo:42046:1,2009-12-02T01:00:00Z,27.8903,-94.0367,2.0,348.2208534,10.53178997,-99999.0,'11111222,11111222,99999999' 
TABS,ioos:station:wmo:42046:1,2009-12-02T01:30:00Z,27.8903,-94.0367,2.0,347.3777735,15.92488618,-99999.0,'11111222,11111222,99999999' 
TABS,ioos:station:wmo:42046:1,2009-12-02T02:00:00Z,27.8903,-94.0367,2.0,343.6507166,16.16361964,-99999.0,'11111222,11111222,99999999' 
TABS,ioos:station:wmo:42046:1,2009-12-02T02:30:00Z,27.8903,-94.0367,2.0,352.6311251,18.63390727,-99999.0,'11111222,11111222,99999999' 
TABS,ioos:station:wmo:42046:1,2009-12-02T03:00:00Z,27.8903,-94.0367,2.0,17.74128373,12.27369952,-99999.0,'11111222,11111222,99999999' 
TABS,ioos:station:wmo:42046:1,2009-12-02T03:30:00Z,27.8903,-94.0367,2.0,109.3715358,25.53564176,-99999.0,'11111222,11111222,99999999' 
TABS,ioos:station:wmo:42046:1,2009-12-02T04:00:00Z,27.8903,-94.0367,2.0,90.38492619,19.35043669,-99999.0,'11111222,11111222,99999999' 
TABS,ioos:station:wmo:42046:1,2009-12-02T04:30:00Z,27.8903,-94.0367,2.0,96.15777487,14.91606181,-99999.0,'11111222,11111222,99999999' 
TABS,ioos:station:wmo:42046:1,2009-12-02T05:00:00Z,27.8903,-94.0367,2.0,105.1284054,13.48743119,-99999.0,'11111222,11111222,99999999' 
TABS,ioos:station:wmo:42046:1,2009-12-02T05:30:00Z,27.8903,-94.0367,2.0,108.356203,13.81284185,-99999.0,'11111222,11111222,99999999' 
TABS,ioos:station:wmo:42046:1,2009-12-02T06:00:00Z,27.8903,-94.0367,2.0,93.91156267,8.209122974,-99999.0,'11133222,11111222,99999999' 
TABS,ioos:station:wmo:42046:1,2009-12-02T06:30:00Z,27.8903,-94.0367,2.0,116.4101363,16.54696347,-99999.0,'11111222,11111222,99999999' 
TABS,ioos:station:wmo:42046:1,2009-12-02T07:00:00Z,27.8903,-94.0367,2.0,113.9624329,16.54608111,-99999.0,'11111222,11111222,99999999' 
TABS,ioos:station:wmo:42046:1,2009-12-02T07:30:00Z,27.8903,-94.0367,2.0,104.0793132,22.5679463,-99999.0,'11111222,11111222,99999999' 
TABS,ioos:station:wmo:42046:1,2009-12-02T08:00:00Z,27.8903,-94.0367,2.0,113.7378711,14.50737743,-99999.0,'11111222,11111222,99999999' 
TABS,ioos:station:wmo:42046:1,2009-12-02T08:30:00Z,27.8903,-94.0367,2.0,122.654638,11.97238489,-99999.0,'11111222,11111222,99999999' 
TABS,ioos:station:wmo:42046:1,2009-12-02T09:00:00Z,27.8903,-94.0367,2.0,109.506128,21.14352147,-99999.0,'11111222,11111222,99999999' 
TABS,ioos:station:wmo:42046:1,2009-12-02T09:30:00Z,27.8903,-94.0367,2.0,103.4255983,20.02730386,-99999.0,'11111222,11111222,99999999' 
TABS,ioos:station:wmo:42046:1,2009-12-02T10:00:00Z,27.8903,-94.0367,2.0,117.2110875,14.67401104,-99999.0,'11111222,11111222,99999999' 
TABS,ioos:station:wmo:42046:1,2009-12-02T10:30:00Z,27.8903,-94.0367,2.0,128.1324884,16.97212126,-99999.0,'11111222,11111222,99999999' 
TABS,ioos:station:wmo:42046:1,2009-12-02T11:00:00Z,27.8903,-94.0367,2.0,93.77932347,14.26101329,-99999.0,'11111222,11111222,99999999' 
TABS,ioos:station:wmo:42046:1,2009-12-02T11:30:00Z,27.8903,-94.0367,2.0,91.89314807,20.28106999,-99999.0,'11111222,11111222,99999999' 
TABS,ioos:station:wmo:42046:1,2009-12-02T12:00:00Z,27.8903,-94.0367,2.0,102.6156107,13.59830136,-99999.0,'11111222,11111222,99999999' 
TABS,ioos:station:wmo:42046:1,2009-12-02T12:30:00Z,27.8903,-94.0367,2.0,105.8788666,15.38714074,-99999.0,'11111222,11111222,99999999' 
TABS,ioos:station:wmo:42046:1,2009-12-02T13:00:00Z,27.8903,-94.0367,2.0,112.6908378,19.85693833,-99999.0,'11111222,11111222,99999999' 
TABS,ioos:station:wmo:42046:1,2009-12-02T13:30:00Z,27.8903,-94.0367,2.0,109.6666025,21.03716949,-99999.0,'11111222,11111222,99999999' 
TABS,ioos:station:wmo:42046:1,2009-12-02T14:00:00Z,27.8903,-94.0367,2.0,106.6274174,18.34717689,-99999.0,'11111222,11111222,99999999' 
TABS,ioos:station:wmo:42046:1,2009-12-02T14:30:00Z,27.8903,-94.0367,2.0,120.058185,17.68885808,-99999.0,'11111222,11111222,99999999' 
TABS,ioos:station:wmo:42046:1,2009-12-02T15:00:00Z,27.8903,-94.0367,2.0,100.9481959,18.63924891,-99999.0,'11111222,11111222,99999999' 
TABS,ioos:station:wmo:42046:1,2009-12-02T15:30:00Z,27.8903,-94.0367,2.0,97.44098768,23.16507932,-99999.0,'11111222,11111222,99999999' 
TABS,ioos:station:wmo:42046:1,2009-12-02T16:00:00Z,27.8903,-94.0367,2.0,98.18461465,19.3167518,-99999.0,'11111222,11111222,99999999' 
TABS,ioos:station:wmo:42046:1,2009-12-02T16:30:00Z,27.8903,-94.0367,2.0,102.2166039,25.28253547,-99999.0,'11111222,11111222,99999999' 
TABS,ioos:station:wmo:42046:1,2009-12-02T17:00:00Z,27.8903,-94.0367,2.0,106.451765,21.29171905,-99999.0,'11111222,11111222,99999999' 
TABS,ioos:station:wmo:42046:1,2009-12-02T17:30:00Z,27.8903,-94.0367,2.0,101.2932672,27.01303759,-99999.0,'11111222,11111222,99999999' 
TABS,ioos:station:wmo:42046:1,2009-12-02T18:00:00Z,27.8903,-94.0367,2.0,108.6757869,26.32619418,-99999.0,'11111222,11111222,99999999' 
TABS,ioos:station:wmo:42046:1,2009-12-02T18:30:00Z,27.8903,-94.0367,2.0,95.52519659,23.680019,-99999.0,'11111222,11111222,99999999' 
TABS,ioos:station:wmo:42046:1,2009-12-02T19:00:00Z,27.8903,-94.0367,2.0,101.7206874,24.07191309,-99999.0,'11111222,11111222,99999999' 
TABS,ioos:station:wmo:42046:1,2009-12-02T19:30:00Z,27.8903,-94.0367,2.0,100.5133852,37.10287455,-99999.0,'11111222,11111222,99999999' 
TABS,ioos:station:wmo:42046:1,2009-12-02T20:00:00Z,27.8903,-94.0367,2.0,95.3989054,26.88928783,-99999.0,'11111222,11111222,99999999' 
TABS,ioos:station:wmo:42046:1,2009-12-02T20:30:00Z,27.8903,-94.0367,2.0,101.6183456,34.60911585,-99999.0,'11111222,11111222,99999999' 
TABS,ioos:station:wmo:42046:1,2009-12-02T21:00:00Z,27.8903,-94.0367,2.0,108.7544886,32.31581811,-99999.0,'11111222,11111222,99999999' 
TABS,ioos:station:wmo:42046:1,2009-12-02T21:30:00Z,27.8903,-94.0367,2.0,100.4361699,34.72443808,-99999.0,'11111222,11111222,99999999' 
TABS,ioos:station:wmo:42046:1,2009-12-02T22:00:00Z,27.8903,-94.0367,2.0,106.6609365,37.28531212,-99999.0,'11111222,11111222,99999999' 
TABS,ioos:station:wmo:42046:1,2009-12-02T22:30:00Z,27.8903,-94.0367,2.0,111.0111443,35.95032267,-99999.0,'11111222,11111222,99999999' 
TABS,ioos:station:wmo:42046:1,2009-12-02T23:00:00Z,27.8903,-94.0367,2.0,106.6122264,32.80941938,-99999.0,'11111222,11111222,99999999' 
TABS,ioos:station:wmo:42046:1,2009-12-02T23:30:00Z,27.8903,-94.0367,2.0,111.858671,31.55893851,-99999.0,'11111222,11111222,99999999' 
TABS,ioos:station:wmo:42046:1,2009-12-03T00:00:00Z,27.8903,-94.0367,2.0,117.57076,39.23562157,-99999.0,'11111222,11111222,99999999' 
TABS,ioos:station:wmo:42046:1,2009-12-03T00:30:00Z,27.8903,-94.0367,2.0,119.9717918,33.18823436,-99999.0,'11111222,11111222,99999999' 
TABS,ioos:station:wmo:42046:1,2009-12-03T01:00:00Z,27.8903,-94.0367,2.0,119.3424516,30.73284399,-99999.0,'11111222,11111222,99999999' 
TABS,ioos:station:wmo:42046:1,2009-12-03T01:30:00Z,27.8903,-94.0367,2.0,120.3785694,35.09901566,-99999.0,'11111222,11111222,99999999' 
TABS,ioos:station:wmo:42046:1,2009-12-03T02:00:00Z,27.8903,-94.0367,2.0,124.0074129,30.03747659,-99999.0,'11111222,11111222,99999999' 
TABS,ioos:station:wmo:42046:1,2009-12-03T02:30:00Z,27.8903,-94.0367,2.0,133.8855564,28.36034556,-99999.0,'11111222,11111222,99999999' 
TABS,ioos:station:wmo:42046:1,2009-12-03T03:00:00Z,27.8903,-94.0367,2.0,123.1288087,23.78668535,-99999.0,'11111222,11111222,99999999' 
TABS,ioos:station:wmo:42046:1,2009-12-03T03:30:00Z,27.8903,-94.0367,2.0,118.4533898,25.92116124,-99999.0,'11111222,11111222,99999999' 
TABS,ioos:station:wmo:42046:1,2009-12-03T04:00:00Z,27.8903,-94.0367,2.0,116.5649891,20.72835015,-99999.0,'11111222,11111222,99999999' 
TABS,ioos:station:wmo:42046:1,2009-12-03T04:30:00Z,27.8903,-94.0367,2.0,117.6071118,18.68767508,-99999.0,'11111222,11111222,99999999' 
TABS,ioos:station:wmo:42046:1,2009-12-03T05:00:00Z,27.8903,-94.0367,2.0,117.3691352,18.16313299,-99999.0,'11111222,11111222,99999999' 
TABS,ioos:station:wmo:42046:1,2009-12-03T05:30:00Z,27.8903,-94.0367,2.0,112.7437958,26.3054462,-99999.0,'11111222,11111222,99999999' 
TABS,ioos:station:wmo:42046:1,2009-12-03T06:00:00Z,27.8903,-94.0367,2.0,122.9764695,21.82637166,-99999.0,'11111222,11111222,99999999' 
TABS,ioos:station:wmo:42046:1,2009-12-03T06:30:00Z,27.8903,-94.0367,2.0,133.7702282,20.75836458,-99999.0,'11111222,11111222,99999999' 
TABS,ioos:station:wmo:42046:1,2009-12-03T07:00:00Z,27.8903,-94.0367,2.0,127.2686672,25.2826126,-99999.0,'11111222,11111222,99999999' 
TABS,ioos:station:wmo:42046:1,2009-12-03T07:30:00Z,27.8903,-94.0367,2.0,117.4690812,26.92561049,-99999.0,'11111222,11111222,99999999' 
TABS,ioos:station:wmo:42046:1,2009-12-03T08:00:00Z,27.8903,-94.0367,2.0,117.3719166,19.05318871,-99999.0,'11111222,11111222,99999999' 
TABS,ioos:station:wmo:42046:1,2009-12-03T08:30:00Z,27.8903,-94.0367,2.0,105.9620714,18.83625494,-99999.0,'11111222,11111222,99999999' 
TABS,ioos:station:wmo:42046:1,2009-12-03T09:00:00Z,27.8903,-94.0367,2.0,121.9684459,21.4183216,-99999.0,'11111222,11111222,99999999' 
TABS,ioos:station:wmo:42046:1,2009-12-03T09:30:00Z,27.8903,-94.0367,2.0,137.0861227,18.06440976,-99999.0,'11111222,11111222,99999999' 
TABS,ioos:station:wmo:42046:1,2009-12-03T10:00:00Z,27.8903,-94.0367,2.0,121.9874016,10.17492015,-99999.0,'11111222,11111222,99999999' 
TABS,ioos:station:wmo:42046:1,2009-12-03T10:30:00Z,27.8903,-94.0367,2.0,101.5706776,12.0651896,-99999.0,'11111222,11111222,99999999' 
TABS,ioos:station:wmo:42046:1,2009-12-03T11:00:00Z,27.8903,-94.0367,2.0,129.3598167,10.86425791,-99999.0,'11111222,11111222,99999999' 
TABS,ioos:station:wmo:42046:1,2009-12-03T11:30:00Z,27.8903,-94.0367,2.0,118.9642412,8.012147028,-99999.0,'11133222,11111222,99999999' 
TABS,ioos:station:wmo:42046:1,2009-12-03T12:00:00Z,27.8903,-94.0367,2.0,124.3924887,8.143610993,-99999.0,'11133222,11111222,99999999' 
TABS,ioos:station:wmo:42046:1,2009-12-03T12:30:00Z,27.8903,-94.0367,2.0,84.70794249,5.312645292,-99999.0,'11133222,11111222,99999999' 
TABS,ioos:station:wmo:42046:1,2009-12-03T13:00:00Z,27.8903,-94.0367,2.0,88.04292034,9.95580735,-99999.0,'11133222,11111222,99999999' 
TABS,ioos:station:wmo:42046:1,2009-12-03T13:30:00Z,27.8903,-94.0367,2.0,81.48278981,8.372335397,-99999.0,'11133222,11111222,99999999' 
TABS,ioos:station:wmo:42046:1,2009-12-03T14:00:00Z,27.8903,-94.0367,2.0,82.19152096,13.10148083,-99999.0,'11111222,11111222,99999999' 
TABS,ioos:station:wmo:42046:1,2009-12-03T14:30:00Z,27.8903,-94.0367,2.0,66.37852571,8.360508358,-99999.0,'11133222,11111222,99999999' 
TABS,ioos:station:wmo:42046:1,2009-12-03T15:00:00Z,27.8903,-94.0367,2.0,67.61773584,14.28627663,-99999.0,'11111222,11111222,99999999' 
TABS,ioos:station:wmo:42046:1,2009-12-03T15:30:00Z,27.8903,-94.0367,2.0,58.34003398,11.43122478,-99999.0,'11111222,11111222,99999999' 
TABS,ioos:station:wmo:42046:1,2009-12-03T16:00:00Z,27.8903,-94.0367,2.0,49.87745816,18.04707456,-99999.0,'11111222,11111222,99999999' 
TABS,ioos:station:wmo:42046:1,2009-12-03T16:30:00Z,27.8903,-94.0367,2.0,38.46943739,16.9105884,-99999.0,'11111222,11111222,99999999' 
TABS,ioos:station:wmo:42046:1,2009-12-03T17:00:00Z,27.8903,-94.0367,2.0,48.09018684,16.52790368,-99999.0,'11111222,11111222,99999999' 
TABS,ioos:station:wmo:42046:1,2009-12-03T17:30:00Z,27.8903,-94.0367,2.0,44.30046455,15.63529661,-99999.0,'11111222,11111222,99999999' 
TABS,ioos:station:wmo:42046:1,2009-12-03T18:00:00Z,27.8903,-94.0367,2.0,48.8568972,16.39959146,-99999.0,'11111222,11111222,99999999' 
TABS,ioos:station:wmo:42046:1,2009-12-03T18:30:00Z,27.8903,-94.0367,2.0,46.15355298,17.91464485,-99999.0,'11111222,11111222,99999999' 
TABS,ioos:station:wmo:42046:1,2009-12-03T19:00:00Z,27.8903,-94.0367,2.0,35.86638666,18.04076772,-99999.0,'11111222,11111222,99999999' 
TABS,ioos:station:wmo:42046:1,2009-12-03T19:30:00Z,27.8903,-94.0367,2.0,45.34840274,18.61139436,-99999.0,'11111222,11111222,99999999' 
TABS,ioos:station:wmo:42046:1,2009-12-03T20:00:00Z,27.8903,-94.0367,2.0,45.25066768,19.40319561,-99999.0,'11111222,11111222,99999999' 
TABS,ioos:station:wmo:42046:1,2009-12-03T20:30:00Z,27.8903,-94.0367,2.0,55.19327851,18.49999189,-99999.0,'11111222,11111222,99999999' 
TABS,ioos:station:wmo:42046:1,2009-12-03T21:00:00Z,27.8903,-94.0367,2.0,57.62732967,17.8549713,-99999.0,'11111222,11111222,99999999' 
TABS,ioos:station:wmo:42046:1,2009-12-03T21:30:00Z,27.8903,-94.0367,2.0,60.22047064,18.42288251,-99999.0,'11111222,11111222,99999999' 
TABS,ioos:station:wmo:42046:1,2009-12-03T22:00:00Z,27.8903,-94.0367,2.0,51.89161935,19.80062625,-99999.0,'11111222,11111222,99999999' 
TABS,ioos:station:wmo:42046:1,2009-12-03T22:30:00Z,27.8903,-94.0367,2.0,64.46979514,13.61987518,-99999.0,'11111222,11111222,99999999' 
TABS,ioos:station:wmo:42046:1,2009-12-03T23:00:00Z,27.8903,-94.0367,2.0,101.3770756,25.09307673,-99999.0,'11111222,11111222,99999999' 
TABS,ioos:station:wmo:42046:1,2009-12-03T23:30:00Z,27.8903,-94.0367,2.0,109.9812196,26.60128004,-99999.0,'11111222,11111222,99999999' 
TABS,ioos:station:wmo:42046:1,2009-12-04T00:00:00Z,27.8903,-94.0367,2.0,127.3471983,29.04500818,-99999.0,'11111222,11111222,99999999' 
TABS,ioos:station:wmo:42046:1,2009-12-04T00:30:00Z,27.8903,-94.0367,2.0,124.3080626,31.36734767,-99999.0,'11111222,11111222,99999999' 
TABS,ioos:station:wmo:42046:1,2009-12-04T01:00:00Z,27.8903,-94.0367,2.0,135.2579815,25.11668768,-99999.0,'11111222,11111222,99999999' 
TABS,ioos:station:wmo:42046:1,2009-12-04T01:30:00Z,27.8903,-94.0367,2.0,133.7204727,25.33488109,-99999.0,'11111222,11111222,99999999' 
TABS,ioos:station:wmo:42046:1,2009-12-04T02:00:00Z,27.8903,-94.0367,2.0,133.750655,22.70352396,-99999.0,'11111222,11111222,99999999' 
TABS,ioos:station:wmo:42046:1,2009-12-04T02:30:00Z,27.8903,-94.0367,2.0,125.1235868,26.38425288,-99999.0,'11111222,11111222,99999999' 
TABS,ioos:station:wmo:42046:1,2009-12-04T03:00:00Z,27.8903,-94.0367,2.0,119.9659874,19.6001148,-99999.0,'11111222,11111222,99999999' 
TABS,ioos:station:wmo:42046:1,2009-12-04T03:30:00Z,27.8903,-94.0367,2.0,129.8864401,17.21585606,-99999.0,'11111222,11111222,99999999' 
TABS,ioos:station:wmo:42046:1,2009-12-04T04:00:00Z,27.8903,-94.0367,2.0,129.9978318,14.11102406,-99999.0,'11111222,11111222,99999999' 
TABS,ioos:station:wmo:42046:1,2009-12-04T04:30:00Z,27.8903,-94.0367,2.0,119.0964925,13.26388329,-99999.0,'11111222,11111222,99999999' 
TABS,ioos:station:wmo:42046:1,2009-12-04T05:00:00Z,27.8903,-94.0367,2.0,130.3083342,21.00781997,-99999.0,'11111222,11111222,99999999' 
TABS,ioos:station:wmo:42046:1,2009-12-04T05:30:00Z,27.8903,-94.0367,2.0,120.0744911,17.46065864,-99999.0,'11111222,11111222,99999999' 
TABS,ioos:station:wmo:42046:1,2009-12-04T06:00:00Z,27.8903,-94.0367,2.0,129.068829,23.40323482,-99999.0,'11111222,11111222,99999999' 
TABS,ioos:station:wmo:42046:1,2009-12-04T06:30:00Z,27.8903,-94.0367,2.0,139.9823027,22.14541036,-99999.0,'11111222,11111222,99999999' 
TABS,ioos:station:wmo:42046:1,2009-12-04T07:00:00Z,27.8903,-94.0367,2.0,127.2106275,21.18237475,-99999.0,'11111222,11111222,99999999' 
TABS,ioos:station:wmo:42046:1,2009-12-04T07:30:00Z,27.8903,-94.0367,2.0,129.9554875,18.09423389,-99999.0,'11111222,11111222,99999999' 
TABS,ioos:station:wmo:42046:1,2009-12-04T08:00:00Z,27.8903,-94.0367,2.0,131.6662602,18.8480052,-99999.0,'11111222,11111222,99999999' 
TABS,ioos:station:wmo:42046:1,2009-12-04T08:30:00Z,27.8903,-94.0367,2.0,141.4581947,15.15044884,-99999.0,'11111222,11111222,99999999' 
TABS,ioos:station:wmo:42046:1,2009-12-04T09:00:00Z,27.8903,-94.0367,2.0,116.1532205,13.06791873,-99999.0,'11111222,11111222,99999999' 
TABS,ioos:station:wmo:42046:1,2009-12-04T09:30:00Z,27.8903,-94.0367,2.0,118.6020056,16.35599279,-99999.0,'11111222,11111222,99999999' 
TABS,ioos:station:wmo:42046:1,2009-12-04T10:00:00Z,27.8903,-94.0367,2.0,125.8479606,17.38276445,-99999.0,'11111222,11111222,99999999' 
TABS,ioos:station:wmo:42046:1,2009-12-04T10:30:00Z,27.8903,-94.0367,2.0,128.1571374,14.06555011,-99999.0,'11111222,11111222,99999999' 
TABS,ioos:station:wmo:42046:1,2009-12-04T11:00:00Z,27.8903,-94.0367,2.0,149.4981571,7.230615465,-99999.0,'11133222,11111222,99999999' 
TABS,ioos:station:wmo:42046:1,2009-12-04T11:30:00Z,27.8903,-94.0367,2.0,166.1301355,7.508934678,-99999.0,'11133222,11111222,99999999' 
TABS,ioos:station:wmo:42046:1,2009-12-04T12:00:00Z,27.8903,-94.0367,2.0,151.8063147,10.85825953,-99999.0,'11111222,11111222,99999999' 
TABS,ioos:station:wmo:42046:1,2009-12-04T12:30:00Z,27.8903,-94.0367,2.0,208.2270636,7.400027027,-99999.0,'11133222,11111222,99999999' 
TABS,ioos:station:wmo:42046:1,2009-12-04T13:00:00Z,27.8903,-94.0367,2.0,136.5175924,9.344158603,-99999.0,'11133222,11111222,99999999' 
TABS,ioos:station:wmo:42046:1,2009-12-04T13:30:00Z,27.8903,-94.0367,2.0,210.7905655,6.251151894,-99999.0,'11133222,11111222,99999999' 
TABS,ioos:station:wmo:42046:1,2009-12-04T14:00:00Z,27.8903,-94.0367,2.0,179.8111108,9.110049396,-99999.0,'11133222,11111222,99999999' 
TABS,ioos:station:wmo:42046:1,2009-12-04T14:30:00Z,27.8903,-94.0367,2.0,190.8498688,13.44027157,-99999.0,'11111222,11111222,99999999' 
TABS,ioos:station:wmo:42046:1,2009-12-04T15:00:00Z,27.8903,-94.0367,2.0,187.8061721,3.754796932,-99999.0,'11133222,11111222,99999999' 
TABS,ioos:station:wmo:42046:1,2009-12-04T15:30:00Z,27.8903,-94.0367,2.0,218.9871628,6.008102862,-99999.0,'11133222,11111222,99999999' 
TABS,ioos:station:wmo:42046:1,2009-12-04T16:00:00Z,27.8903,-94.0367,2.0,251.5646734,3.731487639,-99999.0,'11133222,11111222,99999999' 